(20625) Noto = 1997 JU11 = 1999 TG20

Discovered at Yanagida on 1999-10-09 by A. Tsuchikawa.
(20625) Noto = 1999 TG20

The Noto Peninsula is located in Japan's geographical center, facing the Sea of Japan. The U.S. astronomer Percival Lowell visited the peninsula in 1889. His travelogue, Noto: An Unexplored Corner of Japan, was published in 1891. [Ref: Minor Planet Circ. 42678]

Orbit

Orbit type: Main Belt

Note: WebGL enabled browser required.

epoch2023-09-13.0
epoch JD2460200.5
perihelion date2020-04-18.80511
perihelion JD2458958.30511
argument of perihelion (°)359.20359
ascending node (°)61.61728
inclination (°)2.99340
eccentricity0.0294377
perihelion distance (AU)2.8541554
Tisserand w.r.t. Jupiter3.3
ΔV w.r.t. Earth (km/sec)10.5
semimajor axis (AU)2.9407234
mean anomaly (°)242.77967
mean daily motion (°/day)0.19544410
aphelion distance (AU)3.027
period (years)5.04
P-vector [x]0.48752494
P-vector [y]0.80135035
P-vector [z]0.34663677
Q-vector [x]-0.87189944
Q-vector [y]0.42594538
Q-vector [z]0.24158209
absolute magnitude14.12
phase slope0.15
uncertainty0
referenceMPEC 2024-A55
observations used2261
oppositions22
arc length (days)9629
first opposition used1997
last opposition used2023
residual rms (arc-secs)0.65
perturbers coarse indicatorM-v
perturbers precise indicator003Ek
first observation date used1997-04-11.0
last observation date used2023-08-22.0
computer nameMPCLINUX
JD of orbit computation2456966.861181
perihelion JD uncertainty (days)3.4774E-04
argument of perihelion uncertainty (°)9.5061E-05
ascending node uncertainty (°)6.6434E-05
inclination uncertainty (°)4.1451E-06
eccentricity uncertainty 3.8966E-08
perihelion distance uncertainty (AU)1.1880E-07
Minimum Orbit Intersection Distances (in AU)
for orbit epoch: 2460200.5, reference: E2024-A55
Mercury2.53596
Venus2.13243
Earth1.86524
Mars1.25882
Jupiter2.06222
Saturn6.19015
Uranus15.4832
Neptune26.9683

Observations

2308 total observations over interval: 1997 04 11.35764 – 2023 08 22.123956
These data are available for download (format description).

Date (UT) J2000 RA J2000 Dec Magn Location Ref
1997 04 11.35764 15 09 55.62 -16 05 33.5 19.5   704 – Lincoln Laboratory ETS, New Mexico MPS 8570
1997 04 11.41562 15 09 53.49 -16 05 26.8   704 – Lincoln Laboratory ETS, New Mexico MPS 8570
1997 05 03.05486 14 53 40.72 -15 11 31.1   809 – European Southern Observatory, La Silla MPC 29868
1997 05 03.06806 14 53 39.85 -15 11 29.6   809 – European Southern Observatory, La Silla MPC 29868
1997 05 03.08125 14 53 39.12 -15 11 28.9   809 – European Southern Observatory, La Silla MPC 29868
1997 05 04.07500 14 52 49.22 -15 08 35.7 18.6   809 – European Southern Observatory, La Silla MPC 29868
1997 05 04.08819 14 52 48.51 -15 08 34.0   809 – European Southern Observatory, La Silla MPC 29868
1997 05 04.10139 14 52 47.82 -15 08 29.7   809 – European Southern Observatory, La Silla MPC 29868
1997 05 07.20270 14 50 11.50 -14 59 46.9 18.5   704 – Lincoln Laboratory ETS, New Mexico MPC 30022
1997 05 07.24437 14 50 09.32 -14 59 39.4   704 – Lincoln Laboratory ETS, New Mexico MPC 30022
1997 05 07.26520 14 50 08.25 -14 59 36.3 18.9   704 – Lincoln Laboratory ETS, New Mexico MPC 30022
1997 05 07.28604 14 50 07.16 -14 59 32.2 18.9   704 – Lincoln Laboratory ETS, New Mexico MPC 30022
1998 06 29.33421 21 14 08.67 -19 54 15.6 19.0 V 691 – Steward Observatory, Kitt Peak-Spacewatch MPS 16530
1998 06 29.35702 21 14 08.14 -19 54 20.4 18.8 V 691 – Steward Observatory, Kitt Peak-Spacewatch MPS 16530
1998 06 29.38097 21 14 07.57 -19 54 25.0 18.9 V 691 – Steward Observatory, Kitt Peak-Spacewatch MPS 16530
1999 10 02.43080 03 03 38.08 +15 17 35.8 18.1 R 703 – Catalina Sky Survey MPS 8570
1999 10 02.44313 03 03 37.76 +15 17 36.1 18.3 R 703 – Catalina Sky Survey MPS 8570
1999 10 02.45544 03 03 37.35 +15 17 33.9 18.2 R 703 – Catalina Sky Survey MPS 8570
1999 10 02.46781 03 03 37.14 +15 17 33.5 18.8 R 703 – Catalina Sky Survey MPS 8570
1999 10 09.64838 03 00 09.67 +15 06 02.3 17.6 V 417 – Yanagida Astronomical Observatory MPS 6933
1999 10 09.65983 03 00 09.23 +15 06 01.2   417 – Yanagida Astronomical Observatory MPS 6933
1999 10 10.27852 02 59 48.16 +15 04 49.2 19.1   704 – Lincoln Laboratory ETS, New Mexico MPS 12014
1999 10 10.29459 02 59 47.60 +15 04 47.5 19.0   704 – Lincoln Laboratory ETS, New Mexico MPS 12014
1999 10 10.31028 02 59 47.07 +15 04 46.2 19.3   704 – Lincoln Laboratory ETS, New Mexico MPS 12014
1999 10 10.32547 02 59 46.49 +15 04 44.3 19.2   704 – Lincoln Laboratory ETS, New Mexico MPS 12014
1999 10 10.34154 02 59 45.91 +15 04 42.5 19.1   704 – Lincoln Laboratory ETS, New Mexico MPS 12014
1999 10 11.24288 02 59 14.37 +15 02 54.7 18.0   704 – Lincoln Laboratory ETS, New Mexico MPS 12014
1999 10 11.25192 02 59 14.04 +15 02 53.5 19.0   704 – Lincoln Laboratory ETS, New Mexico MPS 12014
1999 10 11.26099 02 59 13.65 +15 02 52.6 18.6   704 – Lincoln Laboratory ETS, New Mexico MPS 12014
1999 10 11.27026 02 59 13.32 +15 02 51.0 18.8   704 – Lincoln Laboratory ETS, New Mexico MPS 12014
1999 10 11.27931 02 59 12.97 +15 02 50.2 18.5   704 – Lincoln Laboratory ETS, New Mexico MPS 12014
1999 10 18.60111 02 54 20.87 +14 46 09.9 18.0 V 417 – Yanagida Astronomical Observatory MPS 6933
1999 10 18.60959 02 54 20.54 +14 46 08.8   417 – Yanagida Astronomical Observatory MPS 6933
1999 10 20.70038 02 52 47.02 +14 40 46.3 17.5 V 417 – Yanagida Astronomical Observatory MPS 6933
1999 10 20.72060 02 52 46.05 +14 40 43.1   417 – Yanagida Astronomical Observatory MPS 6933
1999 10 21.25604 02 52 21.88 +14 39 18.9 18.9   704 – Lincoln Laboratory ETS, New Mexico MPS 12014
1999 10 21.27149 02 52 21.18 +14 39 15.7 19.2   704 – Lincoln Laboratory ETS, New Mexico MPS 12014
1999 10 21.28701 02 52 20.39 +14 39 13.6 18.9   704 – Lincoln Laboratory ETS, New Mexico MPS 12014
1999 10 21.30242 02 52 19.59 +14 39 10.9 18.9   704 – Lincoln Laboratory ETS, New Mexico MPS 12014
1999 10 21.31785 02 52 18.92 +14 39 09.8 19.1   704 – Lincoln Laboratory ETS, New Mexico MPS 12014
1999 10 21.59086 02 52 06.39 +14 38 24.3 17.3 V 417 – Yanagida Astronomical Observatory MPS 6933
1999 10 21.60240 02 52 05.84 +14 38 22.1   417 – Yanagida Astronomical Observatory MPS 6933
1999 10 22.55490 02 51 21.46 +14 35 47.9 17.4 V 417 – Yanagida Astronomical Observatory MPS 6933
1999 10 22.57773 02 51 20.39 +14 35 44.5   417 – Yanagida Astronomical Observatory MPS 6933
1999 10 30.54500 02 44 46.90 +14 12 49.5 17.4 V 417 – Yanagida Astronomical Observatory MPS 7387
1999 10 30.55194 02 44 46.53 +14 12 48.3   417 – Yanagida Astronomical Observatory MPS 7387
1999 10 30.60299 02 44 43.81 +14 12 39.0   417 – Yanagida Astronomical Observatory MPS 7387
1999 11 04.32069 02 40 39.37 +13 58 23.0 18.5   704 – Lincoln Laboratory ETS, New Mexico MPS 7387
1999 11 04.33679 02 40 38.58 +13 58 19.9 18.2   704 – Lincoln Laboratory ETS, New Mexico MPS 7387
1999 11 04.35296 02 40 37.72 +13 58 17.2 18.3   704 – Lincoln Laboratory ETS, New Mexico MPS 7387
1999 11 04.36905 02 40 36.82 +13 58 13.7 18.6   704 – Lincoln Laboratory ETS, New Mexico MPS 7387
1999 11 04.38513 02 40 35.99 +13 58 09.5 18.6   704 – Lincoln Laboratory ETS, New Mexico MPS 7387
1999 11 05.50843 02 39 37.79 +13 54 46.2 17.3 V 417 – Yanagida Astronomical Observatory MPS 7387
1999 11 06.53230 02 38 44.50 +13 51 39.8 17.3 V 417 – Yanagida Astronomical Observatory MPS 7387
1999 11 06.54619 02 38 43.76 +13 51 37.1   417 – Yanagida Astronomical Observatory MPS 7387
1999 11 09.21884 02 36 25.44 +13 43 33.8 18.7   704 – Lincoln Laboratory ETS, New Mexico MPS 7387
1999 11 09.23497 02 36 24.61 +13 43 30.7 18.9   704 – Lincoln Laboratory ETS, New Mexico MPS 7387
1999 11 09.24948 02 36 23.80 +13 43 27.6 19.1   704 – Lincoln Laboratory ETS, New Mexico MPS 7387
1999 11 09.26479 02 36 23.03 +13 43 24.6 19.4   704 – Lincoln Laboratory ETS, New Mexico MPS 7387
1999 11 12.22707 02 33 52.22 +13 34 41.4 17.8   704 – Lincoln Laboratory ETS, New Mexico MPS 7387
1999 11 12.25666 02 33 50.58 +13 34 35.8 18.7   704 – Lincoln Laboratory ETS, New Mexico MPS 7387
1999 11 12.27109 02 33 49.90 +13 34 33.8 18.4   704 – Lincoln Laboratory ETS, New Mexico MPS 7387
1999 11 12.28555 02 33 49.16 +13 34 31.2 18.2   704 – Lincoln Laboratory ETS, New Mexico MPS 7387
1999 11 16.21352 02 30 35.87 +13 23 27.5 18.7   704 – Lincoln Laboratory ETS, New Mexico MPS 7387
1999 11 16.22859 02 30 35.11 +13 23 24.5 19.0   704 – Lincoln Laboratory ETS, New Mexico MPS 7387
1999 11 16.24285 02 30 34.46 +13 23 21.4 19.2   704 – Lincoln Laboratory ETS, New Mexico MPS 7387
1999 11 16.25710 02 30 33.76 +13 23 19.4 18.9   704 – Lincoln Laboratory ETS, New Mexico MPS 7387
1999 11 16.27132 02 30 32.92 +13 23 15.9 19.6   704 – Lincoln Laboratory ETS, New Mexico MPS 7387
1999 11 17.19987 02 29 48.84 +13 20 47.1 18.2   704 – Lincoln Laboratory ETS, New Mexico MPS 7387
1999 11 17.21547 02 29 48.11 +13 20 44.4 19.1   704 – Lincoln Laboratory ETS, New Mexico MPS 7387
1999 11 17.23106 02 29 47.35 +13 20 42.3 19.2   704 – Lincoln Laboratory ETS, New Mexico MPS 7387
1999 11 17.24665 02 29 46.66 +13 20 39.3 19.2   704 – Lincoln Laboratory ETS, New Mexico MPS 7387
1999 11 17.26218 02 29 45.85 +13 20 38.2 18.8   704 – Lincoln Laboratory ETS, New Mexico MPS 7387
1999 11 26.77695 02 22 55.81 +12 58 21.0 18.3   120 – Visnjan MPS 7829
1999 11 26.78969 02 22 55.41 +12 58 18.9   120 – Visnjan MPS 7829
1999 12 04.16336 02 18 45.71 +12 46 29.3 18.5 R 703 – Catalina Sky Survey MPS 7829
1999 12 04.17538 02 18 45.31 +12 46 27.6 18.0 R 699 – Lowell Observatory-LONEOS MPS 7829
1999 12 04.17549 02 18 45.34 +12 46 27.7 18.1 R 703 – Catalina Sky Survey MPS 7829
1999 12 04.18764 02 18 44.94 +12 46 26.7 18.2 R 703 – Catalina Sky Survey MPS 7829
1999 12 04.19975 02 18 44.55 +12 46 26.7 18.0 R 703 – Catalina Sky Survey MPS 7829
1999 12 04.20338 02 18 44.46 +12 46 26.4   699 – Lowell Observatory-LONEOS MPS 7829
1999 12 04.23137 02 18 43.63 +12 46 23.8   699 – Lowell Observatory-LONEOS MPS 7829
